Imperial, NE

1:49 AM MDT on May 01, 2017 (GMT -0600)
Imperial Municipal

Weather History for KIML - February, 2012

Change the Weather History Date:

Sunday, February 5, 2012

  Actual Average Record
Temperature  
Mean Temperature 21 °F 30 °F  
Max Temperature 33 °F 42 °F 74 °F (1904)
Min Temperature 9 °F 17 °F -23 °F (1899)
Degree Days  
Heating Degree Days 44 35  
Month to date heating degree days 167 179  
Cooling Degree Days 0 0  
Month to date cooling degree days 0 0  
Year to date cooling degree days 0 0  
Moisture  
Dew Point 14 °F    
Average Humidity 79    
Maximum Humidity 92    
Minimum Humidity 66    
Precipitation  
Precipitation 0.00 in 0.01 in 0.41 in (1986)
Sea Level Pressure  
Sea Level Pressure 30.45 in    
Wind  
Wind Speed 5 mph (West)    
Max Wind Speed 12 mph    
Max Gust Speed 13 mph    
Visibility 7 miles    
Events      
T = Trace of Precipitation, MM = Missing Value Source: NWS Daily Summary

Daily Weather History Graph

Daily Weather History Graph

Search for Another Location

Airport or City:

Trip Planner

Search our weather history database for the weather conditions in past years. The results will help you decide how hot, cold, wet, or windy it might be!

Date:

Astronomy

Feb. 05, 2012 Rise Set
Actual Time 6:52 AM MST 5:08 PM MST
Civil Twilight 6:23 AM MST 5:37 PM MST
Nautical Twilight 5:51 AM MST 6:10 PM MST
Astronomical Twilight 5:19 AM MST 6:42 PM MST
Moon 3:09 PM MST (2/5) 5:05 AM MST (2/5)
Length of Visible Light 11h 13m
Length of Day
10h 16m
Waxing Gibbous, 95% of the Moon is Illuminated
Feb 5
Waxing Gibbous
Feb 7
Full
Feb 14
Last Quarter
Feb 21
New
Feb 29
First Quarter

Hourly Weather History & Observations

Time (MST) Temp. Windchill Dew Point Humidity Pressure Visibility Wind Dir Wind Speed Gust Speed Precip Events Conditions
12:53 AM 15.1 °F 5.2 °F 12.0 °F 88% 30.54 in 7.0 mi WNW 6.9 mph - N/A   Clear
1:53 AM 12.9 °F 3.8 °F 10.9 °F 92% 30.54 in 9.0 mi WNW 5.8 mph - N/A   Clear
2:53 AM 12.9 °F -0.2 °F 10.0 °F 88% 30.54 in 10.0 mi West 10.4 mph - N/A   Clear
3:53 AM 12.0 °F 0.5 °F 9.0 °F 88% 30.53 in 10.0 mi West 8.1 mph - N/A   Clear
4:53 AM 10.9 °F 4.7 °F 8.1 °F 88% 30.54 in 10.0 mi WNW 3.5 mph - N/A   Clear
5:53 AM 10.9 °F 2.9 °F 7.0 °F 84% 30.55 in 10.0 mi WNW 4.6 mph - N/A   Clear
6:53 AM 10.0 °F 0.4 °F 7.0 °F 87% 30.54 in 10.0 mi WNW 5.8 mph - N/A   Clear
7:53 AM 12.9 °F 0.7 °F 9.0 °F 84% 30.55 in 10.0 mi WNW 9.2 mph - N/A   Clear
8:53 AM 16.0 °F 6.3 °F 10.9 °F 81% 30.56 in 10.0 mi West 6.9 mph - N/A   Clear
9:53 AM 21.9 °F 13.4 °F 15.1 °F 75% 30.54 in 10.0 mi WNW 6.9 mph - N/A   Clear
10:53 AM 25.0 °F 16.3 °F 18.0 °F 75% 30.53 in 10.0 mi WNW 8.1 mph - N/A   Clear
11:53 AM 28.0 °F 19.3 °F 19.9 °F 72% 30.50 in 10.0 mi West 9.2 mph - N/A   Clear
12:53 PM 32.0 °F 28.7 °F 23.0 °F 69% 30.47 in 10.0 mi WNW 3.5 mph - N/A   Clear
1:53 PM 30.9 °F 24.3 °F 24.1 °F 76% 30.46 in 10.0 mi West 6.9 mph - N/A   Clear
2:53 PM 33.1 °F 28.7 °F 25.0 °F 72% 30.45 in 9.0 mi West 4.6 mph - N/A   Clear
3:53 PM 32.0 °F 27.5 °F 25.0 °F 75% 30.44 in 7.0 mi WSW 4.6 mph - N/A   Clear
4:53 PM 28.9 °F - 24.1 °F 82% 30.44 in 5.0 mi Calm Calm - N/A   Haze
5:53 PM 24.1 °F 19.7 °F 21.0 °F 88% 30.44 in 5.0 mi West 3.5 mph - N/A   Clear
6:53 PM 21.0 °F - 18.0 °F 88% 30.45 in 4.0 mi Calm Calm - N/A   Clear
7:53 PM 19.9 °F 13.4 °F 18.0 °F 92% 30.44 in 4.0 mi WSW 4.6 mph - N/A   Clear
8:53 PM 17.1 °F 11.7 °F 16.0 °F 96% 30.43 in 4.0 mi West 3.5 mph - N/A   Clear
9:53 PM 15.1 °F - 12.0 °F 88% 30.40 in 4.0 mi Calm Calm - N/A   Clear
10:06 PM 10.4 °F - 10.4 °F 100% 30.26 in 1.2 mi Calm Calm - N/A   Clear
10:15 PM 8.6 °F - 6.8 °F 92% 30.26 in 0.8 mi Calm Calm - N/A   Clear
10:22 PM 10.4 °F - 6.8 °F 85% 30.26 in 1.2 mi Calm Calm - N/A   Clear
10:36 PM 12.2 °F - 8.6 °F 85% 30.26 in 3.0 mi Calm Calm - N/A   Clear
10:53 PM 12.0 °F 4.1 °F 9.0 °F 88% 30.40 in 4.0 mi WSW 4.6 mph - N/A   Clear
11:53 PM 12.9 °F 1.6 °F 10.9 °F 92% 30.38 in 5.0 mi West 8.1 mph - N/A   Clear